Voltar ao catálogo

QIANFAN-41

AtivoComunicaçõesPO
NORAD 62242·PAYLOAD·🇨🇳 China

Lançado Dec 5, 2024 de Taiyuan Satellite Launch Center

Loading…

Próximas Passagens (próximas 24 horas)

TLE

AtualizadoSource: Space-Track

Época: Sep 14, 2026, 13:44 UTC

1 62242U 24232F   26257.57255590  .00000098  00000-0  13238-3 0  9996
2 62242  89.0157  13.5102 0015857 113.3418 246.9404 13.51029193136493

Acompanhe QIANFAN-41 em tempo real com AllMySat

Download on the App Store